Terminal Aerodrome Forecast
Issued by NWS Quad Cities IA IL

Home | Current Version | Previous Version | Text Only | Print | Product List | Glossary On
Versions: 1 2 3 4 5 6 7 8 9 10 11 12 13 14 15 16 17 18 19 20 21 22 23 24 25
000
FTUS43 KDVN 271020 AAB
TAFDBQ
TAF AMD
KDBQ 271020Z 2710/2806 07012G20KT P6SM SCT018
      TEMPO 2710/2713 BKN018
     FM271600 08020G30KT 4SM -SHRA OVC015
     FM272200 09018G24KT P6SM OVC025
     FM280200 09015G22KT P6SM SHRA VCTS OVC015CB=

USA.gov is the U.S. government's official web portal to all federal, state and local government web resources and services.